Volver al catálogo

BSAT-4A

ActivoComunicacionesGEO
NORAD 42951·PAYLOAD·🇯🇵 Japan

Lanzado Sep 29, 2017 desde Guiana Space Centre

Loading…

TLE

ActualizadoSource: Space-Track

Época: Sep 14, 2026, 14:19 UTC

1 42951U 17059B   26257.59685443  .00000000  00000-0  00000-0 0  9999
2 42951   0.0140  22.1092 0001734  81.0603 215.1001  1.00270029 32698

Sigue BSAT-4A en tiempo real con AllMySat

Download on the App Store